Feng Yun 2C

operational
NORAD ID: 28451 Int'l Des: 2004-042 Owner: NSMC Country: CN
HEOCIRCULAR

Feng Yun 2Cについて

説明を読み込み中...

リアルタイム位置

3D地球を読み込み中...

次回通過

高度履歴

Altitude vs Time

uPlot chart will show altitude changes over time

軌道要素

1 28451U 04042A 26063.05521389 -.00000114 00000-0 00000+0 0 9996
2 28451 12.2664 31.9616 0003786 339.5787 16.3206 0.98083374 40133
Epoch: Mar 4, 2026 • Age: 21 hours

現在のステータス

高度 36403.8 km
速度 3.05 km/s
衛星直下点 -11.84°S, 159.98°W
打ち上げ日 Oct 19, 2004
運用期間 21.3 years
タイプ other

技術仕様

分類 Payload
質量 651.00 kg
乾燥質量 600.00 kg
総質量 1400.00 kg
長さ 3.00 m
直径 2.10 m
スパン 3.00 m
形状 Cyl
製造者 SISE
バスタイプ FY-2
フェーズステータス In Orbit
所有者/国 NSMC/CN

大規模コンステレーション

Loading constellations...